Location: Dampvalley
(47.9094°N, 6.1967°E)
Time: 20:22:49
(UTC+00:00)

CZ-2C R/B - Pass Details

Date: 05 March 2021
Orbit: 783 x 871 km, 98.2° (Epoch: 22 April)

Event Time Altitude Azimuth Distance (km) Brightness Sun altitude
Rises 05:08:14 0° 149° (SSE) 3,441 6.3 -10.9°
Reaches altitude 10° 05:10:39 10° 145° (SE) 2,512 5.6 -10.5°
Maximum altitude 05:16:05 54° 69° (ENE) 1,059 3.7 -9.6°
Drops below altitude 10° 05:21:32 10° 354° (N) 2,525 5.1 -8.6°
Sets 05:23:58 0° 350° (N) 3,461 5.8 -8.2°
